ASRTU-1 (AO-123)

Last updated on Sun Nov 16 2025 00:04:14 GMT+0000 (Coordinated Universal Time)

1 61781U 24199AY 25319.55834553 .00011266 00000+0 37481-3 0 9997 2 61781 97.3282 185.3171 0015077 0.6910 359.4350 15.31212137101184
UTC large
Height (km)
Speed (km/s)
/
Latitude / Longitude
Inclination (degrees)
Orbital Period (minutes)
Azimuth
Elevation
Range (km)
Doppler Factor

Next 0 passes for location: London (51.5072 / 0.1276)

Sorry there are no passes over London.